Location: ?????????
(37.9643°N, 23.6199°E)
Time: 21:12:47
(UTC+00:00)

Daily predictions for brighter satellites

Satellite Brightness Start Highest point End
(mag) Time Altitude Azimuth Time Altitude Azimuth Time Altitude Azimuth
CZ-4 R/B 4.4 16:38:38 10° SSE 16:42:43 82° ENE 16:46:49 10° N
Meteor PRIRODA 4.1 16:41:49 10° SE 16:44:56 34° ENE 16:48:04 10° N
Cosmos 1515 3.5 16:43:20 10° N 16:46:55 88° E 16:50:27 10° S
Cosmos 2278 4.2 16:42:28 10° N 16:47:46 39° ENE 16:53:03 10° SE
Cosmos 1076 Rocket 4.0 16:44:41 10° SSE 16:48:33 36° E 16:52:27 10° NNE
Meteor 1-26 Rocket 4.2 16:44:05 10° N 16:49:33 89° E 16:55:09 10° S
H-2A R/B 3.0 16:49:28 10° SSE 16:50:28 11° SE 16:51:42 10° ESE
Cosmos 1842 Rocket 4.4 16:47:08 10° NNE 16:50:52 28° ENE 16:54:36 10° SE
CZ-4B R/B 3.8 16:48:04 10° SE 16:51:47 31° ENE 16:55:37 10° N
NOSS 3-3 (C) 3.7 16:47:05 10° SSW 16:52:18 73° ESE 16:58:16 10° NE
Helios 1A 3.4 16:48:41 10° N 16:52:48 69° WNW 16:56:54 10° SSW
Cosmos 2369 4.0 16:47:18 10° NNW 16:52:57 76° WSW 16:58:34 10° SSE
SL-16 R/B 3.0 16:47:58 10° N 16:52:59 31° ENE 16:57:59 10° ESE
Elektron 3 4.2 16:51:07 10° NW 16:53:56 67° SW 16:57:36 10° SSE
CZ-4B R/B 4.5 16:51:40 10° ESE 16:55:25 19° ENE 16:59:12 10° NNE
Cosmos 2034 Rocket 4.1 16:53:05 10° S 16:59:11 59° E 17:05:24 10° NNE
USA 281 3.2 16:55:02 10° SSE 17:01:36 82° ENE 17:08:11 10° NNW
Cosmos 1486 Rocket 4.5 16:56:57 10° S 17:01:49 39° E 17:06:44 10° NE
Hubble Space Telescope 2.6 17:02:06 10° SW 17:05:09 21° S 17:08:12 10° SE
Cosmos 2322 Rocket 3.1 17:03:44 10° N 17:08:28 27° ENE 17:12:25 13° ESE
Cosmos 1602 3.6 17:05:02 10° S 17:08:35 53° E 17:12:07 10° NNE
ADEOS Rocket 3.5 17:03:27 10° SSE 17:10:48 58° ENE 17:17:34 10° N
NOSS 3-3 (A) 3.9 17:05:53 10° SW 17:11:08 77° WNW 17:17:12 10° NNE
Cosmos 1464 Rocket 4.3 17:06:05 10° SSW 17:12:18 73° W 17:18:28 10° N
ASTEX 1 4.4 17:08:55 10° NE 17:12:51 24° E 17:16:46 10° SE
BREEZE-M DEB (TANK) 3.4 17:10:44 10° WNW 17:13:25 53° SSW 17:21:35 10° SE
Cosmos 2082 Rocket 4.3 17:10:54 10° WSW 17:15:34 27° WNW 17:20:18 10° N
Tiangong -2.2 17:14:20 10° WSW 17:17:24 65° SSE 17:19:04 24° E
Cosmos 2151 3.3 17:14:08 10° SSW 17:18:14 67° W 17:22:23 10° N
Okean O Rocket 3.1 17:23:16 18° ENE 17:23:16 18° ENE 17:26:01 10° NNE
Aureole 3 Rocket 4.3 17:18:12 10° SSE 17:23:48 55° E 17:31:34 10° NNE
Atlas Centaur 2 2.6 17:22:09 10° WSW 17:25:11 25° S 17:27:14 17° SE
Cosmos 1092 Rocket 4.1 17:23:27 10° N 17:29:28 52° E 17:35:24 10° SSE
Cosmos 2195 Rocket 4.5 17:23:25 10° N 17:29:42 63° E 17:35:56 10° SSE
DELTA 2 DEB (DPAF) 4.4 17:26:07 10° NNE 17:30:09 40° E 17:34:09 10° S
Cosmos 2360 Rocket 3.0 17:25:15 10° N 17:30:10 30° ENE 17:32:18 23° E
Cosmos 1818 4.1 17:26:41 10° S 17:31:31 35° ESE 17:34:36 19° ENE
IKONOS-2 4.4 17:27:31 10° NNE 17:31:41 63° ESE 17:35:48 10° S
Cosmos 44 4.0 17:27:27 10° NW 17:32:22 55° WSW 17:36:58 10° SSE
Cosmos 2221 4.2 17:30:44 10° NNW 17:34:36 36° W 17:38:25 10° SSW
CZ-4B DEB 4.1 17:30:06 10° SSE 17:35:31 82° ENE 17:41:01 10° NNW
CZ-4 R/B 1.5 17:32:07 10° SSE 17:35:57 50° ENE 17:39:51 10° N
Nadezhda 4 Rocket 4.3 17:31:05 10° NNW 17:37:13 69° W 17:43:17 10° S
Cosmos 2237 4.1 17:34:17 10° NNW 17:39:59 82° ENE 17:45:42 10° SSE
Resurs 01 Rocket 3.0 17:41:35 21° NE 17:41:35 21° NE 17:43:56 10° NNE
Meteor 1-20 Rocket 4.2 17:36:41 10° S 17:42:23 60° E 17:48:01 10° NNE
Cosmos 1271 Rocket 2.4 17:39:01 10° S 17:42:35 68° E 17:46:11 10° NNE
PAYLOAD B 4.1 17:45:14 10° SSE 17:50:45 83° ENE 17:56:16 10° NNW
YAOGAN 1 4.2 17:47:46 10° SSW 17:51:42 35° W 17:55:41 10° NNW
SJ-6B 2.5 17:52:11 18° S 17:54:44 87° WSW 17:58:24 10° NNW
USA 186 3.8 17:58:28 20° N 17:58:28 20° N 17:59:41 10° N
Cosmos 1503 Rocket 3.8 17:52:03 10° SSW 17:57:12 79° ESE 18:02:22 10° NNE
Meteor 1-10 Rocket 4.4 17:52:45 10° N 17:58:38 81° W 18:04:32 10° S
MOS 1-B 4.3 17:55:25 19° SSE 17:59:38 62° ENE 18:05:21 10° N
Cosmos 1634 Rocket 4.1 18:02:18 10° S 18:08:31 77° W 18:14:44 10° N
Cosmos 371 Rocket 3.1 18:05:50 10° S 18:10:38 70° ESE 18:11:36 54° NE
DELTA 4 R/B 4.1 18:08:33 10° WSW 18:11:40 15° SSW 18:12:32 14° S
Cosmos 2333 Rocket 2.2 18:07:46 10° NNW 18:13:20 57° ENE 18:13:46 55° E
USA 267 3.2 18:10:00 31° SE 18:13:29 82° SW 18:20:03 10° NW
NOSS 2-1 (C) 4.4 18:09:56 10° NW 18:14:24 61° WSW 18:18:16 22° SSE
Cosmos 2279 Rocket 3.8 18:10:13 10° S 18:16:23 81° E 18:22:37 10° N
Cosmos 2219 Rocket 3.1 18:13:06 10° N 18:17:02 33° NE 18:17:02 33° NE
Cosmos 158 Rocket 4.1 18:15:39 10° NNW 18:20:28 64° WSW 18:22:35 33° S
Feng Yun 1-1 Rocket 4.3 18:25:26 30° S 18:28:17 78° WSW 18:33:46 10° NNW
Cosmos 773 Rocket 3.9 18:23:28 10° NNW 18:28:47 90° WSW 18:29:01 82° SSE
Meteor 1-27 Rocket 4.1 18:25:43 10° NNW 18:31:34 67° W 18:35:56 18° S
SPOT 1/Viking Rocket 4.0 18:28:40 20° S 18:32:07 58° W 18:37:11 10° NNW
BlueWalker 3 4.3 18:29:06 10° NNW 18:30:13 16° NNW 18:30:13 16° NNW
CZ-4B R/B 3.8 18:30:56 14° S 18:35:28 54° W 18:40:51 10° NNW
SL-16 R/B 3.7 18:31:58 10° NW 18:37:02 34° WSW 18:42:04 10° SSW
Hubble Space Telescope 3.5 18:42:44 10° SW 18:43:22 12° SW 18:43:22 12° SW
Lacrosse 4 Rocket 3.8 18:43:40 10° NNW 18:44:32 16° NNW 18:44:32 16° NNW
Cosmos 2322 Rocket 3.3 18:47:22 10° NW 18:52:35 40° WSW 18:54:19 32° SW
Okean O Rocket 3.4 19:00:38 28° NW 19:00:38 28° NW 19:03:10 10° NNW
Cosmos 2360 Rocket 3.5 19:09:04 10° NW 19:14:07 35° WSW 19:14:07 35° WSW
Resurs 01 Rocket 4.1 19:19:05 18° NW 19:19:05 18° NW 19:20:34 10° NW
NOSS 3-4 (A) 4.0 19:11:45 10° NW 19:18:20 72° WNW 19:18:20 72° WNW
NOSS 3-4 (C) 4.0 19:11:51 10° NW 19:18:25 72° WNW 19:18:25 72° WNW
